map of RVN home
RVN - Airport
Location
City:  Rovaniemi, Lappi (Lappland, Lapland), Finland
ICAO:EFRO
IATA:RVN

Details
Type:Airport (Aerodrome, Airfield)
Latitude:6633'42"N (66.561667)
Longitude:2549'51"E (25.830833)
Elevation:645 ft (197 m)
Variation:11.85E (WMM2015v2 magnetic declination)
0.23 annual change
Runways:1
Longest:9849 × 197 ft (3002 × 60 m), paved

Time
Time Zone:UTC+2 (DST+3)
Local Time:

Weather
METAR:EFRO 041420Z AUTO 07013KT 1600 -SN FEW013 BKN016 OVC019 M16/M18 Q1012 RESN
TAF:EFRO 041129Z 0412/0512 06013KT 1500 -SN FEW010 BKN015
TEMPO 0412/0415 0800 SN VV008
TEMPO 0415/0418 5000 -SN BKN008
BECMG 0418/0420 09005KT 8000 NSW
TEMPO 0420/0503 4000 -SN

Related Locations
Nearby:
Farthest:NZTB: 11352 mi / 18269 km
Terra Nova Bay [Mario Zucchelli Station], AQ

Find:

   beyond  
but within

Other Information
Maps:
NOTAMs:
Links:
Sources:

  
  • flag of Finland
  

Sectional Chart

Flight Planning
at skyvector.com

Satellite Image

Google Maps Satellite view

 

Copyright © 2004-2019 Karl L. Swartz. All rights reserved.
The Great Circle Mapper name and logo are trademarks of the Great Circle Mapper.
All other trademarks mentioned herein belong to their respective owners.
Please see credits for attibutions and further copyright information.

  Follow gcmap on Facebook Follow gcmap on Twitter GCmap on LinkedIn

hCard Microformat

Geo Microformat